Find NATO IIA

NORAD ID: 4353 Int'l Des: 1970-021 Owner: NATO Country: I-NATO operational
HEOCIRCULARGSO

Current View

Loading 3D Globe...

About NATO IIA

Description loading...

Upcoming Passes

Passes for default location (London). Set your location on the main map for personalized predictions.

Altitude History

Loading altitude history...

Two-Line Element Set

1 04353U 70021A 26149.57742750 -.00000079 00000-0 00000-0 0 9991
2 04353 0.4766 307.3700 0001851 285.8503 116.5823 1.00281350125583
Epoch: May 29, 2026 • Age: 24 hours

Current Status

Altitude 35786.5 km
Velocity 3.07 km/s
Sub-Earth Point 0.32°N, 105.13°W
Type other

Most Searched